Terminal Aerodrome Forecast
Issued by NWS Nashville, TN

Home | Current Version | Previous Version | Text Only | Print | Product List | Glossary On
Versions: 1 2 3 4 5 6 7 8 9 10 11 12 13 14 15 16 17 18 19 20 21 22
000
FTUS44 KOHX 020520
TAFBNA
TAF
KBNA 020520Z 0206/0306 23010G18KT 4SM -TSRA BR BKN040CB OVC070
      TEMPO 0206/0208 1 1/2SM -TSRA BR BKN030CB OVC070
     FM020900 20006KT 6SM BR VCTS OVC030CB
     FM021300 19006KT P6SM VCSH SCT030 OVC100
      TEMPO 0218/0222 4SM -TSRA BR BKN030CB OVC100
     FM030300 20006KT 4SM -TSRA BR OVC030CB=

USA.gov is the U.S. government's official web portal to all federal, state and local government web resources and services.